Regional Weather Roundup
Issued by NWS Upton, NY

Current Version | Previous Version | Graphics & Text | Print | Product List | Glossary Off
Versions: 1 2 3 4 5 6 7 8 9 10 11 12 13 14 15 16 17 18 19 20 21 22 23 24 25 26 27 28 29 30 31 32 33 34 35 36 37 38 39 40 41 42 43 44 45 46 47 48 49 50

000
ASUS41 KOKX 020105
RWROKX

REGIONAL WEATHER ROUNDUP
NATIONAL WEATHER SERVICE NEW YORK NY
900 PM EDT WED OCT 01 2014

NOTE: "FAIR" INDICATES FEW OR NO CLOUDS BELOW 12,000 FEET WITH NO
SIGNIFICANT WEATHER AND/OR OBSTRUCTIONS TO VISIBILITY.

NYZ071-072-176-178-NJZ106-104-020200-
NEW YORK CITY METRO AREA


CITY           SKY/WX    TMP DP  RH WIND       PRES   REMARKS
CENTRAL PARK   CLOUDY    64  55  72 NE9       30.09S
LAGUARDIA APRT CLOUDY    64  56  75 NE12      30.06S
KENNEDY INTL   MOCLDY    63  56  78 N13       30.07S
NEWARK/LIBERTY CLOUDY    64  57  78 NE12      30.07S
BRNX BOT. GARD   N/A     61  55  82 N9        30.08F
TETERBORO      CLOUDY    64  56  75 CALM      30.06S
$$

NYZ177-179-078>081-020200-
LONG ISLAND NEW YORK

CITY           SKY/WX    TMP DP  RH WIND       PRES   REMARKS
FARMINGDALE    CLOUDY    62  57  83 N10       30.06S
ISLIP          CLOUDY    60  57  89 N13       30.04R
SHIRLEY        CLOUDY    60  57  89 N7        30.06R
WESTHAMPTON    CLOUDY    60  57  89 N7        30.06R
MONTAUK POINT    N/A     60  58  92 N10G21    30.05R
$$

NYZ052-065-067-020200-
HUDSON VALLEY

CITY           SKY/WX    TMP DP  RH WIND       PRES   REMARKS
WHITE PLAINS   CLOUDY    60  55  83 N6        30.07S
NEWBURGH       CLOUDY    61  59  94 NE8       30.10S
MONTGOMERY     CLOUDY    61  58  90 NE8       30.09S
POUGHKEEPSIE   CLOUDY    62  59  90 NE5       30.09R
ALBANY         DRIZZLE   62  57  83 NE6       30.12S
$$

NJZ001-105-106-008-010-013-015-019>022-104-020200-
NEW JERSEY

CITY           SKY/WX    TMP DP  RH WIND       PRES   REMARKS
NEWARK/LIBERTY CLOUDY    64  57  78 NE12      30.07S
TETERBORO      CLOUDY    64  56  75 CALM      30.06S
CALDWELL       CLOUDY    63  56  78 E5        30.08R
MORRISTOWN     CLOUDY    64  57  77 CALM      30.07S
SOMERVILLE     CLOUDY    65  57  75 N3        30.05S
LINDEN         CLOUDY    68  59  73 NE8       30.08S
SUSSEX         CLOUDY    64  57  78 N6        30.09R
ANDOVER          N/A     61  58  90 NE3       30.09R
TRENTON        CLOUDY    64  57  78 NE6       30.06R
MILLVILLE      CLEAR     62  58  86 NE6       30.05R
ATLANTIC CITY  CLOUDY    62  60  93 N7        30.05R
WRIGHTSTOWN    CLOUDY    62  59  90 N7        30.04S
TOMS RIVER     CLOUDY    61  59  94 N3        30.06S
BELMAR         CLOUDY    63  55  77 N7        30.06S
$$

PAZ047>061-062-071-020200-
EASTERN PENNSYLVANIA

CITY           SKY/WX    TMP DP  RH WIND       PRES   REMARKS
PHILADELPHIA   MOCLDY    66  57  72 NE8       30.06R
ALLENTOWN      CLOUDY    62  56  80 N3        30.08R
SCRANTON       CLOUDY    63  54  72 E3        30.09R
$$

CTZ002-004>006-009-010-012-RIZ004-006-007-MAZ004-011-015-020200-
SOUTHERN NEW ENGLAND
 IN CT

CITY           SKY/WX    TMP DP  RH WIND       PRES   REMARKS
BRADLEY INTL   CLOUDY    60  56  86 N9        30.10R
HARTFORD       CLOUDY    59  55  87 N8        30.09R
DANBURY        LGT RAIN  58  56  93 NE6       30.10S FOG
WTRBRY/OXFORD  NOT AVBL
BRIDGEPORT     CLOUDY    60  58  92 N9        30.07S
MERIDEN        CLOUDY    59  55  87 N9        30.08R
NEW HAVEN      CLOUDY    62  57  83 N12       30.07R
CHESTER        CLOUDY    57  55  94 N9        30.08R
GROTON         CLOUDY    57  56  96 N13       30.05R
WILLIMANTIC    CLOUDY    58  54  86 N12       30.08R

 IN RI

CITY           SKY/WX    TMP DP  RH WIND       PRES   REMARKS
PROVIDENCE     LGT RAIN  57  56  96 N13       30.07R
BLOCK ISLAND   CLOUDY    59  55  88 N13G20    30.04R
WESTERLY       CLOUDY    58  56  93 N10       30.05R

 IN MA

CITY           SKY/WX    TMP DP  RH WIND       PRES   REMARKS
BOSTON         LGT RAIN  57  56  96 NE20      30.09R FOG
WORCESTER      LGT RAIN  54  53  97 NE8       30.11S FOG
WESTFIELD      CLOUDY    59  56  89 N9        30.11S FOG
PROVINCETOWN   CLOUDY    61  57  88 NE20G28   30.06F
NANTUCKET      LGT RAIN  61  59  93 NE21G30   29.99F
$$

ANZ330-335-338-340-345-350-353-355-020200-
COASTAL MARINE OBSERVATIONS


STATION/POSITION TIME  SKY/WX   TEMP    WIND        PRES    VSBY  WAVE
                                AIR SEA DIR/SP/G                  HT/PER
                 (UTC)          (F)     (DEG/KT/KT) (MB)    (MI)  (FT/S)
NY HARB ENTRANCE NOT AVBL
4S FIRE IS       NOT AVBL
20S FIRE ISLAND  0100            62 67   20/ 17/ 21 1016.7          5/ 6
23SW MTP         0100                                 N/A           7/ 6
HUDSON CANYON    0100            65 70   20/ 21/ 25 1014.6          8/ 7
EXECUTION ROCKS  0100            64 68   30/ 12/ 16   N/A
WESTERN LI SOUND 0000            64      40/ 14/ 16   N/A           1/ 3
CENTRAL LI SOUND 0000            61 68   10/ 14/ 17   N/A           2/ 3
EASTERN LI SOUND 0000            60 67   20/ 16/ 19   N/A
ROBBINS REEF     0100            65      50/ 12/ 15 1016.7
$$


>>>>>>>>>>>>>>>>>>>>>>>>>>>> KEY <<<<<<<<<<<<<<<<<<<<<<<<<<<
>                                                          <
>     SKY/WX - SKY CONDITION/PRESENT WEATHER               <
>     TMP    - TEMPERATURE IN FAHRENHEIT                   <
>     DP     - DEWPOINT IN FAHRENHEIT                      <
>     RH     - RELATIVE HUMIDITY IN PERCENT                <
>     WIND   - DIRECTION AND SPEED IN MPH                  <
>     PRES   - MEAN SEA LEVEL PRESSURE IN INCHES OF HG     <
>     WCI    - WIND CHILL INDEX                            <
>     VSB    - VISIBILITY IN MILES                         <
>     HX     - HEAT INDEX                                  <
>     TC     - TEMPERATURE IN CELSIUS                      <
>     VRB    - VARIABLE WIND DIRECTION                     <
>                                                          <
>>>>>>>>>>>>>>>>>>>>>>>>>>>> KEY <<<<<<<<<<<<<<<<<<<<<<<<<<<





USA.gov is the U.S. government's official web portal to all federal, state and local government web resources and services.